Regional Weather Roundup
Issued by NWS

Home | Current Version | Previous Version | Text Only | Print | Product List | Glossary On
Versions: 1 2 3 4 5 6 7 8 9 10 11 12 13 14 15 16 17 18 19 20 21 22 23 24 25 26 27 28 29 30 31 32 33 34 35 36 37 38 39 40 41 42 43 44 45 46 47 48 49 50
000
ASUS45 KABQ 291210
RWRNM
NEW MEXICO REGIONAL WEATHER ROUNDUP
NATIONAL WEATHER SERVICE ALBUQUERQUE NM
600 AM MDT FRI APR 29 2016

NOTE: "FAIR" MEANS FEW OR NO CLOUDS BELOW 12,000 FEET AGL WITH NO
       SIGNIFICANT WEATHER OR OBSTRUCTIONS TO VISION.

      THIS PRODUCT IS RELEASED AS TWO VERSIONS.  ONE VERSION NEAR
      THE TOP OF THE HOUR CONTAINING PRELIMINARY DATA FROM ALBUQUERQUE
      AND OTHER STATIONS.  A FINAL VERSION WITH ADDITIONAL DATA IS
      ISSUED ABOUT 10 MINUTES AFTER THE HOUR.

NMZ501-503-504-510>518-291300-
NORTHWEST PLATEAU/NORTHCENTRAL MOUNTAINS

CITY           SKY/WX    TMP DP  RH WIND       PRES   REMARKS
FARMINGTON     FAIR      38  32  79 E7        29.83F WCI  33
6HR MIN TEMP:  38; 6HR MAX TEMP:  49;

LOS ALAMOS     SNOW      32  32 100 W3        29.90S VSB 1/2
SANTA FE       LGT RAIN  37  35  92 N8        29.86F WCI  31
6HR MIN TEMP:  37; 6HR MAX TEMP:  55; 6HR PCP:  0.06;

TAOS           CLOUDY    32  27  80 W7        29.87S WCI  26
ANGEL FIRE     CLOUDY    32  29  90 N6        29.86F WCI  26

$$
NMZ402-403-502-505>509-291300-
WESTCENTRAL MOUNTAINS/SOUTHWEST MOUNTAINS

CITY           SKY/WX    TMP DP  RH WIND       PRES   REMARKS
GALLUP         MOCLDY    32  22  66 CALM      29.87S
6HR MIN TEMP:  30; 6HR MAX TEMP:  45;

GRANTS         FAIR      30  23  76 CALM      29.88S
SILVER CITY      N/A     39  18  41 NE3       29.91R

$$
NMZ407-409-411-412-291300-
SOUTHERN DESERTS

CITY           SKY/WX    TMP DP  RH WIND       PRES   REMARKS
LORDSBURG      FAIR      41  19  42 NW6       29.89F
DEMING         FAIR      43  22  43 W9        29.88R
6HR MIN TEMP:  42; 6HR MAX TEMP:  61;

LAS CRUCES     FAIR      47  22  37 W9        29.88R
HOLLOMAN AFB   FAIR      52  24  32 W3        29.84R
ALAMOGORDO     FAIR      54  23  30 SW8       29.85S
T OR C         FAIR      48  30  49 NW12      29.83R
6HR MIN TEMP:  47; 6HR MAX TEMP:  61;


$$
NMZ519>523-291300-
CENTRAL VALLEYS/CENTRAL HIGHLANDS

CITY           SKY/WX    TMP DP  RH WIND       PRES   REMARKS
ALBUQUERQUE    FAIR      43  38  82 N9        29.84F
6HR MIN TEMP:  43; 6HR MAX TEMP:  59; 6HR PCP:  0.14;

DOUBLE EAGLE   MOCLDY    37  37 100 CALM      29.85F
CLINES CORNERS FAIR      35  32  88 N6        29.82F WCI  30
6HR MIN TEMP:  35; 6HR MAX TEMP:  50; 6HR PCP:  0.08;

BELEN          FAIR      41  32  72 N7        29.85R
6HR MIN TEMP:  41; 6HR MAX TEMP:  58;

SOCORRO        FAIR      45  31  57 N6        29.84R
6HR MIN TEMP:  45; 6HR MAX TEMP:  61;


$$
NMZ524>526-539-540-291300-
SOUTHCENTRAL MOUNTAINS

CITY           SKY/WX    TMP DP  RH WIND       PRES   REMARKS
RUIDOSO          N/A     46  19  34 W15G25    29.87S

$$
NMZ527>531-291300-
NORTHEAST HIGHLANDS/NORTHEAST PLAINS

CITY           SKY/WX    TMP DP  RH WIND       PRES   REMARKS
LAS VEGAS      LGT SNOW  32  32 100 CALM      29.87S FOG
6HR MIN TEMP:  33; 6HR MAX TEMP:  44; 6HR PCP:  0.18;

RATON          LGT SNOW  33  31  92 N12       29.87F FOG     WCI  24
6HR MIN TEMP:  32; 6HR MAX TEMP:  38; 6HR PCP:  0.54;

CLAYTON        RAIN      42  40  92 N21       29.84F FOG
6HR MIN TEMP:  41; 6HR MAX TEMP:  42; 6HR PCP:  0.15;


$$
NMZ532>537-291300-
EASTCENTRAL PLAINS

CITY           SKY/WX    TMP DP  RH WIND       PRES   REMARKS
TUCUMCARI      LGT RAIN  47  44  90 NW16G23   29.81R
6HR MIN TEMP:  47; 6HR MAX TEMP:  54; 6HR PCP: TRACE;

CANNON AFB     CLOUDY    50  49  99 N29G39    29.73R
6HR MIN TEMP:  50; 6HR MAX TEMP:  61; 6HR PCP: TRACE;

CLOVIS AIRPORT CLOUDY    52  46  82 NW22G30   29.75R

$$
NMZ028-029-538-291300-
SOUTHEAST PLAINS

CITY           SKY/WX    TMP DP  RH WIND       PRES   REMARKS
ROSWELL        FAIR      55  46  71 N5        29.76R
6HR MIN TEMP:  54; 6HR MAX TEMP:  62;

ARTESIA        FAIR      55  43  62 N10G18    29.76R
CARLSBAD       FAIR      67  27  22 W21       29.72R
6HR MIN TEMP:  61; 6HR MAX TEMP:  69;

HOBBS          CLEAR     55  54  94 SW9       29.72R


$$




USA.gov is the U.S. government's official web portal to all federal, state and local government web resources and services.